Renton, WA

9:38 AM PST on February 08, 2016 (GMT -0800)
Renton Municipal

Weather History for KRNT - March, 2011

Change the Weather History Date:

Monday, March 14, 2011

  Actual Average Record
Temperature  
Mean Temperature 50 °F -  
Max Temperature 55 °F 51 °F 64 °F (2005)
Min Temperature 46 °F 39 °F 35 °F (1997)
Degree Days  
Heating Degree Days 14    
Moisture  
Dew Point 40 °F    
Average Humidity 73    
Maximum Humidity 90    
Minimum Humidity 53    
Precipitation  
Precipitation 0.12 in - - ()
Sea Level Pressure  
Sea Level Pressure 30.01 in    
Wind  
Wind Speed 9 mph (SSE)    
Max Wind Speed 17 mph    
Max Gust Speed 29 mph    
Visibility 10 miles    
Events Rain    
Averages and records for this station are not official NWS values.
T = Trace of Precipitation, MM = Missing Value Source: NWS Daily Summary

Daily Weather History Graph

Daily Weather History Graph

Search for Another Location

Airport or City:

Trip Planner

Search our weather history database for the weather conditions in past years. The results will help you decide how hot, cold, wet, or windy it might be!

Date:

Astronomy

Mar. 14, 2011 Rise Set
Actual Time 7:24 AM PDT 7:12 PM PDT
Civil Twilight 6:53 AM PDT 7:43 PM PDT
Nautical Twilight 6:17 AM PDT 8:19 PM PDT
Astronomical Twilight 5:41 AM PDT 8:55 PM PDT
Moon 1:14 PM PDT (3/14) 4:14 AM PDT (3/14)
Length of Visible Light 12h 49m
Length of Day
11h 48m
Waxing Gibbous, 69% of the Moon is Illuminated
Mar 14
Waxing Gibbous
Mar 19
Full
Mar 26
Last Quarter
Apr 3
New
Apr 11
First Quarter

Hourly Weather History & Observations

Time (PDT) Temp. Windchill Dew Point Humidity Pressure Visibility Wind Dir Wind Speed Gust Speed Precip Events Conditions
12:53 AM 46.0 °F 41.9 °F 39.0 °F 76% 29.83 in 10.0 mi ESE 8.1 mph - N/A   Overcast
1:53 AM 46.0 °F 41.9 °F 39.9 °F 79% 29.88 in 10.0 mi SSE 8.1 mph - 0.00 in Rain Light Rain
2:53 AM 46.9 °F - 39.9 °F 77% 29.91 in 9.0 mi SSE 9.2 mph - 0.00 in Rain Light Rain
3:53 AM 46.9 °F - 39.9 °F 77% 29.93 in 10.0 mi SSE 15.0 mph 21.9 mph 0.01 in   Overcast
4:53 AM 46.9 °F - 39.0 °F 74% 29.94 in 10.0 mi SSE 12.7 mph 28.8 mph 0.00 in   Overcast
5:53 AM 46.9 °F - 37.9 °F 71% 29.97 in 10.0 mi SSE 12.7 mph 19.6 mph 0.00 in   Overcast
6:26 AM 46.4 °F 41.9 °F 39.2 °F 76% 29.97 in 10.0 mi South 9.2 mph - N/A   Overcast
6:46 AM 46.4 °F 42.9 °F 39.2 °F 76% 29.98 in 10.0 mi South 6.9 mph - N/A   Overcast
6:53 AM 46.9 °F - 39.0 °F 74% 30.00 in 10.0 mi South 10.4 mph - N/A   Overcast
7:53 AM 46.9 °F - 39.9 °F 77% 30.02 in 10.0 mi South 11.5 mph 17.3 mph 0.03 in   Overcast
8:53 AM 46.9 °F - 39.9 °F 77% 30.05 in 7.0 mi SSE 12.7 mph 24.2 mph 0.01 in Rain Light Rain
9:53 AM 48.0 °F - 39.9 °F 74% 30.08 in 10.0 mi SE 8.1 mph 17.3 mph 0.01 in   Overcast
10:53 AM 48.0 °F - 41.0 °F 77% 30.12 in 8.0 mi SSE 8.1 mph 23.0 mph 0.00 in Rain Light Rain
11:53 AM 48.0 °F - 42.1 °F 80% 30.14 in 9.0 mi SSE 4.6 mph - 0.03 in Rain Light Rain
12:53 PM 54.0 °F - 41.0 °F 62% 30.12 in 10.0 mi South 17.3 mph 23.0 mph 0.00 in   Mostly Cloudy
1:53 PM 54.0 °F - 41.0 °F 62% 30.11 in 10.0 mi South 12.7 mph 19.6 mph 0.00 in   Mostly Cloudy
2:53 PM 54.0 °F - 39.0 °F 57% 30.10 in 10.0 mi South 13.8 mph 24.2 mph 0.00 in   Mostly Cloudy
3:53 PM 55.0 °F - 37.9 °F 53% 30.09 in 10.0 mi South 10.4 mph 18.4 mph N/A   Mostly Cloudy
4:53 PM 54.0 °F - 39.9 °F 59% 30.08 in 10.0 mi South 13.8 mph 19.6 mph N/A   Partly Cloudy
5:53 PM 52.0 °F - 39.9 °F 63% 30.05 in 10.0 mi SSE 8.1 mph - N/A   Overcast
6:53 PM 52.0 °F - 39.0 °F 61% 30.05 in 10.0 mi SSE 5.8 mph - N/A   Overcast
7:53 PM 50.0 °F - 41.0 °F 71% 30.04 in 9.0 mi Variable 4.6 mph - 0.00 in Rain Light Rain
8:53 PM 48.9 °F - 42.1 °F 77% 30.04 in 8.0 mi South 3.5 mph - 0.01 in Rain Light Rain
9:53 PM 46.9 °F - 44.1 °F 90% 30.00 in 10.0 mi ESE 3.5 mph - 0.02 in Rain Light Rain
10:53 PM 46.9 °F - 43.0 °F 86% 29.95 in 10.0 mi South 3.5 mph - 0.00 in   Overcast
11:53 PM 46.0 °F 44.8 °F 43.0 °F 89% 29.89 in 10.0 mi West 3.5 mph - N/A   Overcast